[[{"header":{"parameterUnit":"m.s-1","parameterCategory":1,"la1":30.2991,"la2":30.254,"lo1":-89.0895,"lo2":-89.0444,"dy":0.0017,"dx":0.0017,"nx":28,"ny":28,"refTime":"2023-03-20T15:00:00:Z","depth":0,"parameterNumber":2,"parameterNumberName":"U-component_of_WINDS"},"data":[0,0,0,0,0,0,0,0,0,0,0,0,0,0,0,0,0,0,0,0,0,0,0,0,0,0,0,0,0,0,0,0,0,0,0,0,0,0,0,0,0,0,0,0,0,0,0,0,0,0,0,0,0,0,0,0,0,0,-4.8052,-4.8053,0,-4.8195,-4.8197,-4.8198,-4.8217,-4.8216,-4.8214,-4.8213,-4.8356,-4.836,-4.8365,0,0,0,0,0,0,0,0,0,0,0,0,0,-4.7791,-4.7796,-4.8051,-4.8053,-4.8055,-4.8195,-4.8197,-4.8199,-4.8217,-4.8216,-4.8214,-4.8212,-4.8354,-4.836,-4.8366,0,0,0,0,0,0,0,0,0,0,0,0,0,-4.7916,-4.7797,-4.8051,-4.8081,-4.8085,-4.8195,-4.8197,-4.8199,-4.8218,-4.8216,-4.8214,-4.8212,-4.8352,-4.8359,-4.8367,-4.8454,0,0,-4.839,-4.8393,0,0,0,0,0,0,0,0,-4.7909,-4.7926,-4.8075,-4.8079,-4.8084,-4.8186,-4.8157,-4.8285,-4.8218,-4.8167,-4.8213,-4.8211,-4.8301,-4.8312,-4.8343,-4.8461,-4.8467,-4.8391,-4.8395,-4.8398,-4.8401,0,0,0,0,0,0,0,-4.79,-4.792,-4.8108,-4.8077,-4.8083,-4.8087,-4.8102,-4.8181,-4.8243,-4.8172,-4.8173,-4.819,-4.8303,-4.8336,-4.8347,-4.8469,-4.839,-4.8397,-4.8402,-4.8405,-4.8667,-4.8669,0,0,0,0,0,0,-4.7887,-4.7912,-4.8104,-4.8112,-4.799,-4.8093,-4.8111,-4.8155,-4.8243,-4.8254,-4.8192,-4.8191,-4.8324,-4.8338,-4.8352,-4.846,-4.8398,-4.8406,-4.841,-4.8665,-4.8667,-4.867,0,0,0,0,0,0,-4.7881,-4.7903,-4.8098,-4.8013,-4.8038,-4.81,-4.815,-4.8159,-4.8193,-4.8258,-4.8269,-4.8215,-4.8323,-4.8341,-4.8429,-4.8465,-4.8409,-4.8416,-4.8662,-4.8665,-4.8669,-4.8677,0,0,0,0,0,0,-4.7873,-4.7901,-4.7935,-4.8014,-4.8043,-4.8173,-4.8152,-4.8164,-4.8206,-4.8206,-4.8282,-4.8293,-4.8323,-4.8418,-4.8437,-4.8475,-4.8422,-4.8659,-4.8663,-4.8668,-4.8673,-4.868,-4.8686,0,0,0,0,0,-4.7864,-4.7931,-4.7937,-4.796,-4.8087,-4.8175,-4.8192,-4.8226,-4.8209,-4.8244,-4.8286,-4.8291,-4.8459,-4.8427,-4.8448,-4.8489,-4.8656,-4.8662,-4.8667,-4.867,-4.8679,-4.8686,0,0,0,0,0,0,-4.7852,-4.7941,-4.7949,-4.8044,-4.8102,-4.8178,-4.8222,-4.8233,-4.8296,-4.8293,-4.8332,-4.8349,-4.8435,-4.8471,-4.8434,-4.8579,-4.8556,-4.8566,-4.8551,-4.856,-4.8566,-4.8554,-4.8428,0,0,0,0,0,-4.7862,-4.7927,-4.8001,-4.8077,-4.8106,-4.816,-4.8199,-4.8221,-4.8282,-4.8307,-4.8355,-4.8414,-4.848,-4.8522,-4.8587,-4.868,-4.8697,-4.8719,-4.8725,-4.873,-4.8737,-4.8789,-4.88,-4.8688,-4.8688,-4.8688,0,0,-4.7879,-4.7936,-4.7975,-4.8076,-4.8124,-4.819,-4.818,-4.825,-4.8299,-4.8317,-4.8403,-4.8441,-4.8509,-4.86,-4.8643,-4.8633,-4.8773,-4.8737,-4.874,-4.8745,-4.8796,-4.8806,-4.8816,-4.8692,-4.8691,-4.869,0,0,-4.7945,-4.7996,-4.8065,-4.8114,-4.8187,-4.8223,-4.824,-4.8316,-4.8342,-4.843,-4.8445,-4.8504,-4.8618,-4.8665,-4.8704,-4.8793,-4.8799,-4.8813,-4.8844,-4.8895,-4.8903,-4.8911,-4.8942,-4.8952,-4.8821,-4.8821,-4.8821,0,-4.7957,-4.8059,-4.8098,-4.8169,-4.8212,-4.8235,-4.8305,-4.835,-4.844,-4.847,-4.8459,-4.8603,-4.865,-4.8753,-4.8775,-4.8806,-4.8826,-4.8803,-4.8899,-4.8908,-4.8916,-4.8945,-4.8956,-4.8822,-4.8822,-4.8822,-4.8822,0,-4.807,-4.814,-4.8187,-4.8276,-4.8325,-4.8395,-4.8444,-4.849,-4.8509,-4.8546,-4.8635,-4.8694,-4.8771,-4.8798,-4.8816,-4.8904,-4.8895,-4.8892,-4.8869,-4.8927,-4.8955,-4.8966,-4.8824,-4.8823,-4.8823,-4.8823,0,0,-4.8128,-4.8241,-4.8257,-4.8298,-4.8383,-4.8437,-4.8509,-4.8586,-4.8624,-4.8687,-4.8746,-4.8844,-4.8842,-4.8886,-4.8911,-4.8956,-4.9021,-4.8947,-4.8949,-4.8956,-4.9121,-4.9121,-4.9133,-4.9028,-4.903,-4.9032,-4.9114,0,-4.8202,-4.833,-4.8369,-4.8476,-4.8542,-4.8566,-4.8629,-4.8687,-4.8724,-4.8785,-4.8826,-4.8894,-4.8887,-4.8914,-4.896,-4.9003,-4.9054,-4.8999,-4.9082,-4.9084,-4.9061,-4.9148,-4.9148,-4.9222,-4.9126,-4.9127,-4.9129,0,-4.8304,-4.8371,-4.8485,-4.8563,-4.8592,-4.8647,-4.8722,-4.878,-4.8847,-4.8872,-4.8924,-4.8945,-4.902,-4.8997,-4.91,-4.9062,-4.9099,-4.9126,-4.913,-4.9136,-4.9107,-4.9154,-4.9247,-4.9257,-4.9147,-4.9145,-4.9144,0,-4.8333,-4.8451,-4.8535,-4.857,-4.8664,-4.8702,-4.8742,-4.8808,-4.8853,-4.8919,-4.8948,-4.9021,-4.906,-4.9117,-4.9157,-4.9137,-4.9257,-4.9237,-4.9278,-4.9277,-4.9299,-4.9296,-4.9396,-4.9328,-4.9328,-4.9327,-4.9327,0,-4.8409,-4.8478,-4.8549,-4.86,-4.8678,-4.8723,-4.8799,-4.8841,-4.89,-4.8959,-4.8985,-4.904,-4.9092,-4.9154,-4.9187,-4.9267,-4.9285,-4.9306,-4.9313,-4.9302,-4.9299,-4.9324,-4.9319,-4.933,-4.933,-4.9329,-4.9329,0,-4.8452,-4.8504,-4.8596,-4.8679,-4.8701,-4.8755,-4.8825,-4.8876,-4.8916,-4.8991,-4.9011,-4.9074,-4.9148,-4.9196,-4.929,-4.9312,-4.94,-4.9407,-4.9377,-4.938,-4.9417,-4.9412,-4.9534,-4.9552,-4.9474,-4.9475,-4.9475,0,-4.8496,-4.855,-4.8639,-4.8682,-4.8723,-4.8791,-4.8838,-4.8886,-4.8933,-4.9016,-4.9056,-4.9133,-4.9196,-4.9314,-4.9368,-4.944,-4.9448,-4.9486,-4.9458,-4.9446,-4.9446,-4.9441,-4.9446,-4.9489,-4.9489,-4.949,-4.949,0,-4.8568,-4.8592,-4.8658,-4.8735,-4.879,-4.8852,-4.8914,-4.8947,-4.9006,-4.9058,-4.9136,-4.9185,-4.9283,-4.9359,-4.9437,-4.9478,-4.9494,-4.95,-4.9512,-4.9499,-4.9479,-4.9489,-4.9386,-4.9495,-4.9495,-4.9494,-4.9494,-4.9494,-4.8612,-4.8661,-4.8732,-4.8806,-4.8858,-4.8916,-4.8968,-4.9016,-4.9082,-4.9166,-4.9191,-4.9272,-4.934,-4.9447,-4.949,-4.9554,-4.9549,-4.9568,-4.9572,-4.9575,-4.9575,-4.9472,-4.9569,-4.9568,-4.9568,-4.9568,-4.9568,0,-4.8683,-4.8731,-4.8799,-4.8886,-4.8944,-4.8958,-4.9028,-4.9075,-4.9146,-4.9209,-4.9273,-4.9362,-4.9437,-4.9498,-4.9574,-4.9613,-4.9622,-4.9631,-4.9627,-4.9637,-4.9576,-4.9556,-4.9623,-4.9623,-4.9623,-4.9623,-4.9623,-4.9623,-4.8727,-4.881,-4.8843,-4.8953,-4.9001,-4.9081,-4.912,-4.9173,-4.9224,-4.9324,-4.9386,-4.9426,-4.9489,-4.9571,-4.964,-4.9656,-4.9682,-4.9689,-4.9706,-4.9647,-4.9641,-4.9635,-4.9616,-4.9695,-4.9695,-4.9761,-4.9762,-4.9762]},{"header":{"parameterUnit":"m.s-1","parameterCategory":1,"la1":30.2991,"la2":30.254,"lo1":-89.0895,"lo2":-89.0444,"dy":0.0017,"dx":0.0017,"nx":28,"ny":28,"refTime":"2023-03-20T15:00:00:Z","depth":0,"parameterNumber":3,"parameterNumberName":"V-component_of_WINDS"},"data":[0,0,0,0,0,0,0,0,0,0,0,0,0,0,0,0,0,0,0,0,0,0,0,0,0,0,0,0,0,0,0,0,0,0,0,0,0,0,0,0,0,0,0,0,0,0,0,0,0,0,0,0,0,0,0,0,0,0,4.0143,4.0143,0,4.0161,4.0161,4.0161,4.0188,4.0188,4.0188,4.0189,4.0204,4.0204,4.0204,0,0,0,0,0,0,0,0,0,0,0,0,0,4.0128,4.0129,4.0143,4.0143,4.0143,4.0161,4.0161,4.0161,4.0187,4.0188,4.0189,4.0189,4.0204,4.0204,4.0204,0,0,0,0,0,0,0,0,0,0,0,0,0,4.0139,4.0129,4.0142,4.0158,4.016,4.0161,4.0161,4.0161,4.0187,4.0188,4.0189,4.0189,4.0204,4.0204,4.0204,4.019,0,0,4.0204,4.0204,0,0,0,0,0,0,0,0,4.0139,4.014,4.0156,4.0157,4.0159,4.0173,4.0162,4.0171,4.0187,4.0177,4.0189,4.019,4.0193,4.0194,4.0196,4.0191,4.0192,4.0204,4.0204,4.0204,4.0204,0,0,0,0,0,0,0,4.0138,4.0139,4.015,4.0156,4.0158,4.0164,4.0166,4.0164,4.0181,4.0178,4.018,4.0182,4.0194,4.0196,4.0196,4.0192,4.0204,4.0204,4.0204,4.0204,4.0177,4.0176,0,0,0,0,0,0,4.0135,4.0138,4.0149,4.015,4.015,4.0163,4.0166,4.0168,4.0181,4.0184,4.0181,4.0183,4.0196,4.0196,4.0197,4.0182,4.0204,4.0204,4.0204,4.0178,4.0177,4.0176,0,0,0,0,0,0,4.0135,4.0136,4.0148,4.0145,4.0147,4.0163,4.0164,4.0167,4.0169,4.0183,4.0186,4.018,4.0196,4.0197,4.0192,4.0183,4.0204,4.0204,4.0178,4.0177,4.0176,4.0151,0,0,0,0,0,0,4.0134,4.0136,4.0131,4.0145,4.0147,4.0144,4.0164,4.0167,4.0169,4.0172,4.0183,4.0185,4.0197,4.0192,4.0192,4.0183,4.0204,4.0179,4.0178,4.0177,4.0152,4.0149,4.0146,0,0,0,0,0,4.0134,4.0122,4.013,4.0131,4.0141,4.0143,4.0144,4.0158,4.0169,4.0164,4.0173,4.0185,4.0184,4.0191,4.0192,4.0182,4.018,4.0178,4.0177,4.0154,4.015,4.0146,0,0,0,0,0,0,4.0105,4.0124,4.0133,4.0126,4.0133,4.0148,4.0142,4.0153,4.0157,4.0159,4.0175,4.0177,4.017,4.0176,4.0184,4.017,4.0184,4.0182,4.0166,4.0162,4.0159,4.0158,4.0204,0,0,0,0,0,4.0098,4.0099,4.0115,4.0107,4.011,4.0125,4.0126,4.0137,4.0144,4.0147,4.0156,4.0161,4.0163,4.0163,4.0164,4.0154,4.0156,4.0147,4.0144,4.0141,4.014,4.0135,4.0131,4.0171,4.0171,4.0171,0,0,4.0083,4.0094,4.0093,4.0101,4.0108,4.0108,4.0127,4.0126,4.0126,4.0146,4.0143,4.0149,4.0157,4.0149,4.0146,4.0153,4.0129,4.0139,4.0137,4.0137,4.0133,4.0129,4.0126,4.017,4.017,4.017,0,0,4.0057,4.0065,4.0059,4.0066,4.0076,4.0086,4.0085,4.0098,4.0104,4.0101,4.0116,4.0116,4.0117,4.0122,4.0125,4.0101,4.0112,4.0101,4.0084,4.0079,4.0076,4.0073,4.0065,4.0062,4.0099,4.0099,4.0099,0,4.0037,4.0038,4.0055,4.0053,4.0056,4.0076,4.007,4.0076,4.0085,4.0087,4.0095,4.0098,4.0104,4.0098,4.0093,4.0094,4.0093,4.01,4.0075,4.0072,4.007,4.0062,4.0059,4.0098,4.0098,4.0098,4.0098,0,4.0013,4.0014,4.0008,4.0018,4.0021,4.0017,4.0033,4.0033,4.0043,4.0053,4.0049,4.0058,4.0062,4.0062,4.0071,4.0057,4.0061,4.0072,4.0087,4.0065,4.0058,4.0055,4.0096,4.0096,4.0097,4.0097,0,0,3.9968,3.9989,3.9987,3.9992,4.0005,4.0005,4.0002,4.0008,4.0008,4.0014,4.0012,4.0013,4.0023,4.0026,4.0037,4.0032,4.0013,4.0044,4.0044,4.0038,3.9999,3.9991,3.9987,4.0021,4.0021,4.002,3.9998,0,3.9944,3.9942,3.9957,3.995,3.995,3.997,3.9967,3.9975,3.9983,3.9985,3.9994,3.9995,4.0008,4.001,4.0007,4.0016,4.0006,4.0018,4.0019,4.0019,4.0016,3.9983,3.9975,3.9953,3.9996,3.9995,3.9995,0,3.9916,3.9922,3.9915,3.9929,3.993,3.9928,3.9934,3.9935,3.9944,3.9951,3.9955,3.9967,3.9965,3.9979,3.9976,3.9984,3.9985,3.999,3.9989,3.999,4.0005,3.9983,3.9947,3.9944,3.9991,3.9991,3.9991,0,3.9884,3.9891,3.9888,3.9891,3.9908,3.9906,3.9912,3.9922,3.9924,3.993,3.9931,3.9936,3.9938,3.9941,3.9954,3.9963,3.995,3.9965,3.9955,3.9954,3.9951,3.9951,3.9914,3.9951,3.9951,3.9951,3.9952,0,3.9856,3.9851,3.9874,3.9872,3.9867,3.9885,3.9879,3.9887,3.9896,3.9896,3.9912,3.9911,3.9929,3.993,3.994,3.9936,3.9937,3.9942,3.9945,3.994,3.994,3.9941,3.9943,3.9951,3.9951,3.9951,3.9951,0,3.982,3.9835,3.9833,3.9849,3.9853,3.9849,3.9863,3.9861,3.9872,3.9871,3.9872,3.9887,3.9889,3.9903,3.9908,3.9915,3.9907,3.9912,3.9904,3.9906,3.9896,3.9896,3.9859,3.9855,3.9894,3.9894,3.9893,0,3.9801,3.9798,3.9814,3.9816,3.9822,3.9824,3.9827,3.9844,3.9846,3.9857,3.9854,3.9858,3.9862,3.9864,3.9875,3.9879,3.9885,3.9871,3.9885,3.9881,3.9885,3.9885,3.9885,3.9868,3.9868,3.9867,3.9867,0,3.9766,3.9774,3.9778,3.9785,3.9788,3.9794,3.9801,3.9801,3.982,3.9821,3.9824,3.9828,3.9833,3.9836,3.9842,3.9848,3.9861,3.9863,3.986,3.9856,3.9852,3.9854,3.9896,3.9863,3.9864,3.9864,3.9864,3.9864,3.9738,3.9737,3.9748,3.9752,3.976,3.9766,3.9766,3.9776,3.9779,3.9786,3.9796,3.9797,3.9806,3.9816,3.9821,3.9822,3.9829,3.9826,3.9825,3.9824,3.9822,3.9852,3.9823,3.9823,3.9823,3.9824,3.9824,0,3.9704,3.9713,3.9717,3.9726,3.973,3.9742,3.975,3.9752,3.9754,3.9762,3.9766,3.9769,3.9773,3.9784,3.9789,3.9788,3.9793,3.9788,3.9789,3.979,3.9816,3.9817,3.9784,3.9784,3.9784,3.9784,3.9784,3.9784,3.9687,3.9685,3.9695,3.9697,3.9705,3.9708,3.9712,3.9717,3.9724,3.9727,3.9731,3.9739,3.9748,3.9754,3.9758,3.9761,3.9762,3.9755,3.976,3.9784,3.9788,3.9792,3.9793,3.9755,3.9755,3.9734,3.9734,3.9734]}]]